#timestamp,LO_Frequency,Hit,StdDev 
1698217215.2,286046996.9,P
1698217235.1,286046997.6,N
1698217236.0,286046997.6,N
1698217255.8,286046997.9,N
1698217275.7,286046995.3,Y
1698217295.5,286046999.4,P
1698217315.3,286046999.2,N
1698217335.2,286046997.9,N
1698217355.0,286046997.3,Y
1698217355.9,286046997.3,P
1698217375.8,286046999.3,N
1698217395.6,286047001.2,N
1698217415.4,286047000.5,N
1698217435.3,286047002.6,N
1698217455.1,286047001.4,N
1698217475.8,286047002.5,N
1698217495.7,286047000.0,N
1698217515.5,286047000.0,N
1698217535.4,286047002.5,N
1698217555.2,286047002.1,N
1698217575.0,286047000.0,N
1698217575.9,286047000.0,N
1698217595.8,286046999.8,N
1698217615.6,286046999.9,N
1698217635.4,286046999.7,N
1698217655.3,286047001.3,N
1698217675.1,286047002.6,N
1698217695.8,286047002.4,N
1698217715.7,286046998.6,N
1698217735.5,286046996.9,N
1698217755.4,286046995.2,N
1698217775.2,286046996.1,N
1698217795.0,286046995.8,N
1698217795.9,286046995.8,N
1698217815.8,286046993.6,N
1698217835.6,286046994.5,N
1698217855.4,286046994.6,N
1698217875.3,286046995.9,N
1698217895.1,286046995.6,N
1698217915.9,286046993.3,N
1698217935.7,286046995.6,N
1698217955.5,286046996.3,N
1698217975.4,286046994.2,N
1698217995.2,286046993.5,N
1698218015.0,286046996.1,N
1698218015.9,286046996.1,N
1698218035.8,286046995.6,N
1698218055.6,286046995.8,N
1698218075.5,286046996.2,N
1698218095.3,286046995.7,N
1698218115.1,286046993.8,N
1698218135.9,286046993.7,N
1698218155.7,286046994.5,N
1698218175.6,286046991.9,Y
1698218195.4,286046998.3,P
1698218215.2,286047001.1,N
1698218235.1,286047000.0,N
1698218236.0,286047000.0,N
1698218255.8,286047000.4,N
1698218275.6,286047000.8,N
1698218295.5,286047000.8,N
1698218315.3,286047000.4,N
1698218335.2,286047001.1,N
1698218355.9,286046998.2,N
1698218375.7,286046998.9,N
1698218395.6,286046997.3,N
1698218415.4,286046997.5,N
1698218435.2,286046997.1,N
1698218455.1,286046997.3,N
1698218456.0,286046997.3,N
1698218475.8,286046997.7,N
1698218495.7,286046995.3,N
1698218515.5,286046995.7,N
1698218535.3,286046994.2,Y
1698218555.2,286046996.2,P
1698218575.0,286046996.3,P
1698218575.9,286046996.3,P
1698218595.8,286046995.0,Y
1698218615.6,286046999.1,P
1698218635.4,286046997.2,N
1698218655.3,286046997.3,N
1698218675.1,286046997.9,N
1698218695.9,286046995.2,Y
1698218715.7,286046997.3,P
1698218735.5,286046995.6,P
1698218755.4,286046995.1,P
1698218775.2,286046996.3,Y
1698218795.1,286046999.2,P
1698218796.0,286046999.2,N
1698218815.8,286046996.6,N
1698218835.6,286046997.4,N
1698218855.5,286046997.3,N
1698218875.3,286046995.0,Y
1698218895.2,286046998.8,P
1698218915.9,286046999.0,N
1698218935.7,286046999.6,N
1698218955.6,286046996.6,Y
1698218975.4,286046998.3,P
1698218995.3,286046998.2,P
1698219015.1,286046998.2,P
1698219016.0,286046998.2,Y
1698219035.8,286046999.9,P
1698219055.7,286047002.8,P
1698219075.5,286046999.8,N
1698219095.3,286047000.1,N
1698219115.2,286047000.1,N
1698219135.0,286047002.8,N
1698219135.9,286047002.8,N
1698219155.8,286047001.6,N
1698219175.6,286047002.5,N
1698219195.4,286047000.0,N
1698219215.3,286047000.6,N
1698219235.1,286046998.7,N
1698219255.9,286046999.3,N
1698219275.7,286046998.9,N
1698219295.5,286046999.1,N
1698219315.4,286046998.7,N
1698219335.2,286046998.7,N
1698219355.0,286046998.8,N
1698219355.9,286046998.8,N
1698219375.8,286046996.6,N
1698219395.6,286046996.6,N
1698219415.5,286047011.9,Y
1698219435.3,286046997.2,P
1698219455.1,286046997.5,N
1698219475.9,286046997.8,N
1698219495.7,286046995.4,Y
1698219515.6,286046999.5,P
1698219535.4,286046996.8,P
1698219555.2,286046997.8,N
1698219575.1,286046996.9,Y
1698219576.0,286046996.9,P
1698219595.8,286047000.8,N
1698219615.6,286046998.1,N
1698219635.5,286046998.1,N
1698219655.3,286047000.0,N
1698219675.2,286046999.9,N
1698219695.9,286047000.7,N
1698219715.7,286047001.2,N
1698219735.6,286047001.0,N
1698219755.4,286046999.8,N
1698219775.2,286047000.6,N
1698219795.1,286047000.8,N
1698219796.0,286047000.8,N
1698219815.8,286047000.5,N
1698219835.7,286046999.7,N
1698219855.5,286047001.9,N
1698219875.3,286047001.8,N
1698219895.2,286047003.8,N
1698219915.0,286047003.8,N
1698219915.9,286047003.8,N
1698219935.7,286047001.8,N
1698219955.6,286046999.9,N
1698219975.4,286046999.8,N
1698219995.3,286047000.4,N
1698220015.1,286047001.1,N
1698220016.0,286047001.1,N
1698220035.8,286046999.0,N
1698220055.7,286046999.1,N
1698220075.5,286046996.9,N
1698220095.3,286046998.5,N
1698220115.2,286047000.8,N
1698220135.0,286047000.0,N
1698220135.9,286047000.0,N
1698220155.8,286047000.3,N
1698220175.6,286047000.5,N
1698220195.4,286047000.7,N
1698220215.3,286046998.5,N
1698220235.1,286046999.4,N
1698220255.9,286046998.6,N
1698220275.7,286046998.4,N
1698220295.5,286046998.6,N
1698220315.4,286046998.5,N
1698220335.2,286046998.9,N
1698220355.0,286046999.6,N
1698220355.9,286046999.6,N
1698220375.8,286046999.0,N
1698220395.6,286047001.0,N
1698220415.5,286047000.7,N
1698220435.3,286047001.0,N
1698220455.1,286047000.8,N
1698220475.9,286046998.6,N
1698220495.7,286047000.4,N
1698220515.5,286046998.9,N
1698220535.4,286046996.7,Y
1698220555.2,286046997.0,P
1698220575.1,286046996.8,N
1698220576.0,286046996.8,N
1698220595.8,286046995.8,Y
1698220615.6,286046996.8,P
1698220635.5,286046999.4,N
1698220655.3,286046998.1,N
1698220675.2,286046999.1,N
1698220695.9,286046997.8,N
1698220715.7,286046996.1,Y
1698220735.6,286046998.0,P
1698220755.4,286046997.8,P
1698220775.2,286046997.1,P
1698220795.1,286046996.6,Y
1698220796.0,286046996.6,P
